Theta_e
297 297 297 296 296 296 297 297 298 298 299 299 299 299 299 299 299 299 299 301 303 302 302 303 303 303 302 301 301 303 304 304 304 302 302 304 307 306 305 305 304 303 303 301 300 302 304 304 303 303 303 303 305 306 311 313 316 321 327 333 333 330 331 330 328 327 325 320 315 315 317 317 314 313 314 315 316 314 315 316 317 319 321 322 321 320 320 321
297 297 297 297 296 296 297 297 298 298 298 299 299 299 298 298 298 298 299 300 302 303 302 302 303 303 303 303 302 303 303 304 305 302 302 303 304 305 305 305 304 303 302 301 300 302 305 304 304 304 303 304 305 307 311 312 316 322 327 330 331 330 326 325 325 322 321 319 315 315 316 317 315 314 315 315 313 314 315 315 316 318 319 320 320 319 320 321
297 297 297 297 296 296 297 297 298 298 299 298 298 298 298 298 298 298 298 298 300 302 302 302 303 303 304 304 304 304 303 304 304 302 302 302 303 305 304 305 304 303 301 301 300 302 305 304 304 304 304 305 306 309 311 312 315 318 325 333 329 325 322 321 322 321 320 318 315 315 316 315 314 315 316 314 313 313 312 313 314 314 315 319 319 319 321 321
297 297 297 297 297 297 297 297 298 298 299 298 298 298 298 298 298 298 298 298 299 301 303 302 302 303 303 304 304 304 303 304 303 301 302 302 303 304 304 305 305 303 301 300 300 302 304 304 304 304 304 305 306 309 310 313 316 316 324 330 321 319 323 321 320 320 318 317 315 315 315 315 315 316 315 315 317 314 309 310 312 312 314 318 319 320 321 322
297 297 297 297 297 296 297 297 298 299 299 299 298 298 298 299 299 299 299 298 298 300 302 303 302 302 303 303 304 304 304 306 303 301 302 302 303 303 303 304 305 304 301 300 300 301 304 304 304 304 304 305 306 309 310 312 317 317 316 316 313 317 323 319 318 320 317 316 316 315 316 315 314 313 313 316 316 312 308 309 311 312 314 317 319 320 322 323
297 297 297 297 297 297 297 297 298 299 299 299 299 299 299 299 300 300 299 299 299 300 301 303 302 302 302 303 304 304 305 305 302 301 302 302 303 303 303 304 304 304 301 300 301 301 303 304 305 304 304 305 307 309 310 311 317 320 315 310 312 316 318 317 317 318 318 317 315 314 314 313 311 309 309 311 307 306 307 309 311 312 314 316 318 320 321 323
297 297 298 297 297 297 297 298 299 299 299 299 299 300 301 301 300 300 300 300 300 300 301 302 303 302 302 303 304 304 303 303 302 302 302 302 303 303 303 303 304 304 301 301 301 301 303 304 305 304 304 305 306 310 314 313 315 320 316 310 311 314 314 316 316 317 318 317 313 313 312 311 311 309 308 306 303 304 307 309 311 312 313 315 317 319 321 323
297 298 298 298 298 297 297 299 300 300 300 300 301 302 303 302 301 300 300 301 301 301 300 301 302 302 302 303 303 303 302 302 302 302 302 303 303 303 303 304 304 303 301 301 302 303 305 305 305 304 305 305 306 313 316 315 315 315 314 310 310 311 311 314 315 314 315 314 313 313 310 308 309 309 306 304 304 305 307 309 311 312 313 315 317 318 321 323
298 298 298 298 298 297 297 299 300 301 301 302 303 303 303 303 302 301 300 301 301 301 301 301 302 302 302 302 302 302 302 302 302 302 303 303 303 303 304 304 304 303 301 302 303 305 305 306 306 305 306 305 308 314 314 317 317 311 311 310 309 310 310 313 313 312 312 311 314 312 308 308 309 310 308 304 304 305 306 309 311 312 313 314 316 318 319 321
298 298 298 298 298 298 298 300 300 301 302 302 303 303 303 303 303 302 300 300 301 300 301 301 301 302 302 302 303 303 302 302 303 303 303 303 303 304 304 304 304 302 301 302 303 305 306 307 307 307 307 306 310 313 312 317 316 309 310 309 309 311 310 312 311 311 312 311 313 312 309 310 311 313 310 305 304 304 306 308 310 313 314 314 316 317 318 319
299 299 298 298 298 298 298 300 301 301 302 302 302 302 302 302 303 303 301 300 301 301 301 301 301 301 302 303 303 303 302 303 303 303 304 303 304 305 305 304 304 302 301 302 304 306 308 308 308 307 307 309 312 312 311 313 312 310 312 311 310 311 311 312 311 312 313 311 313 312 311 312 312 311 308 305 305 304 305 306 307 311 313 314 316 318 319 320
298 298 298 298 298 298 298 300 301 301 302 302 301 301 301 301 302 303 302 300 300 301 301 301 301 302 303 303 303 303 303 303 303 303 304 304 304 305 305 305 304 302 301 301 304 307 308 308 308 308 309 311 312 312 311 311 313 313 314 314 313 313 313 312 312 313 313 313 313 314 318 316 311 308 305 305 306 305 305 305 306 308 309 311 314 317 319 320
298 298 298 298 298 298 298 299 300 301 301 301 301 300 300 300 301 303 303 301 300 301 301 301 302 303 303 303 303 303 303 303 303 303 303 304 304 305 305 305 304 302 301 300 303 306 308 308 309 309 311 311 311 313 313 312 314 315 315 315 316 317 315 312 313 314 313 314 312 314 324 320 309 307 306 306 306 305 306 305 305 306 306 308 311 315 317 319
298 299 299 298 298 298 297 299 300 300 301 301 300 300 300 299 302 303 303 302 302 302 301 301 302 303 303 302 303 303 303 303 303 303 303 303 304 305 305 305 303 303 301 300 303 306 308 309 310 310 311 312 311 313 313 314 315 316 317 318 319 321 316 312 312 313 314 313 310 316 324 319 310 307 306 306 306 306 307 305 306 306 307 308 310 313 316 317
299 299 299 299 298 298 297 298 299 300 300 300 300 300 299 300 302 303 303 303 302 302 301 302 302 302 303 303 303 303 303 303 303 303 303 302 303 304 305 304 303 302 300 299 302 306 308 309 311 312 312 312 313 314 316 318 318 318 321 321 321 320 315 313 310 310 314 313 311 318 322 316 310 307 306 307 306 307 307 306 307 308 309 311 312 314 315 316
299 299 299 299 298 298 298 297 299 300 300 299 299 299 299 301 303 303 303 303 303 302 302 302 302 302 304 303 303 304 303 303 303 304 303 303 302 303 303 302 301 301 300 300 303 306 309 310 311 312 312 313 315 316 318 320 320 319 321 321 319 318 316 315 312 309 311 313 313 317 319 316 312 307 306 307 307 307 307 306 308 310 310 311 313 315 315 316
299 299 299 299 298 298 298 297 298 299 299 299 299 299 299 300 302 303 303 303 303 302 302 302 302 302 304 303 303 303 303 303 304 304 304 304 303 304 304 303 302 302 302 302 304 307 309 311 312 313 312 313 315 318 320 322 322 320 319 319 317 317 317 317 315 310 309 314 317 315 314 313 310 306 305 306 306 307 307 306 307 310 311 310 311 313 315 316
300 299 299 299 298 298 298 298 298 298 299 299 299 299 299 300 302 303 302 303 303 303 303 302 302 304 304 303 303 303 303 304 304 304 304 304 304 304 304 305 305 305 304 304 305 308 310 310 312 314 314 315 317 319 320 321 321 320 319 318 317 317 318 316 315 311 310 314 316 315 313 309 306 306 305 305 305 306 306 306 307 309 309 308 309 311 313 316
300 300 300 299 299 299 299 298 298 297 298 298 298 298 298 298 300 302 302 302 302 302 303 302 301 304 303 302 303 303 303 304 304 304 304 304 305 304 304 305 305 305 304 305 307 307 309 312 313 316 317 316 316 315 317 321 320 319 318 318 317 316 315 313 311 308 308 313 313 313 313 308 307 306 305 305 304 305 305 304 305 306 306 305 307 309 312 315
300 300 300 300 299 299 299 299 298 298 297 298 298 298 298 299 301 302 301 301 301 300 301 300 300 301 301 302 303 303 304 304 304 304 304 305 304 304 304 305 305 305 306 307 308 307 309 314 314 313 313 312 311 309 313 318 318 317 317 317 316 316 313 311 310 306 306 312 312 310 311 309 307 306 305 304 304 304 304 303 304 304 304 304 305 308 311 314
300 300 300 300 299 299 299 299 298 298 297 297 297 298 298 298 301 302 302 301 301 301 300 300 300 300 301 302 302 303 304 304 304 304 304 304 304 304 304 305 306 307 305 303 306 309 311 313 310 307 306 306 307 308 312 316 317 316 316 316 315 314 312 309 309 307 306 312 311 309 311 310 307 306 306 304 303 304 304 303 304 304 304 304 305 307 309 312
300 300 300 300 299 299 299 298 298 298 297 297 297 298 298 299 302 302 302 303 302 301 301 300 301 301 301 302 302 303 303 304 304 305 305 304 304 304 303 305 309 307 305 305 308 312 312 311 307 304 302 304 308 311 314 316 316 316 315 316 314 312 312 310 309 309 309 312 311 310 311 310 307 305 305 305 304 304 305 304 304 305 304 304 305 307 308 310
300 300 300 300 299 299 299 298 298 298 298 297 297 298 298 300 302 302 302 303 302 302 301 302 302 302 302 302 302 303 303 303 303 304 305 305 304 304 304 305 308 308 308 310 311 312 312 309 304 302 303 308 313 313 315 316 315 315 316 316 314 312 316 315 310 310 311 312 311 311 312 311 310 307 305 306 306 306 307 306 305 305 305 305 306 307 307 309
301 301 300 300 299 299 299 298 298 298 298 297 297 298 299 301 301 302 301 301 302 302 302 302 302 301 302 301 301 303 303 302 302 303 305 305 304 304 304 304 306 307 306 307 309 309 309 304 301 303 307 312 315 314 315 316 314 314 315 315 314 314 317 315 311 312 313 313 312 313 316 315 313 312 310 308 306 306 307 306 306 306 306 306 306 306 306 309
301 301 300 300 300 299 299 299 298 298 297 297 297 297 299 301 300 301 302 302 303 302 301 301 301 300 301 302 301 302 303 303 302 303 304 305 304 305 304 303 305 307 305 306 308 308 306 303 303 308 311 312 314 314 314 314 314 315 313 313 313 314 315 312 312 317 319 319 313 312 321 322 315 314 315 311 306 306 305 304 305 308 308 306 306 308 308 310
301 301 300 300 301 301 299 299 298 298 298 298 297 298 300 300 300 301 303 306 305 302 301 301 301 301 300 301 301 302 304 304 302 303 304 304 304 305 306 304 304 305 305 305 307 306 304 304 307 310 312 313 314 314 312 313 316 315 311 312 312 313 315 314 317 321 322 320 312 310 321 324 317 315 315 314 312 310 308 305 306 308 309 308 309 312 312 314
301 301 300 300 301 301 300 299 298 298 298 297 297 298 299 300 300 300 303 307 305 301 301 301 301 301 301 301 301 303 305 304 303 304 303 304 304 304 307 306 305 304 302 304 307 305 303 306 309 310 312 314 315 313 311 311 317 315 309 310 313 314 316 317 321 320 315 315 313 312 316 320 322 319 313 314 316 315 314 311 309 309 310 311 313 315 316 317
302 301 300 300 300 301 300 299 299 298 298 298 298 298 299 300 300 300 305 307 303 301 301 301 301 301 301 302 301 302 303 302 303 304 303 304 305 304 305 304 305 304 300 304 310 304 301 305 306 308 312 313 311 309 308 310 313 311 308 310 312 312 314 316 319 316 313 317 319 315 312 316 324 319 310 312 315 315 316 315 313 312 313 314 315 317 318 318
301 301 301 299 300 300 299 299 299 299 299 299 298 298 299 300 299 303 307 305 302 301 300 300 302 300 300 302 302 300 300 301 302 303 303 304 305 304 304 303 303 304 302 304 307 303 301 303 300 302 310 311 307 305 306 312 313 308 307 310 311 311 312 314 315 316 316 320 321 314 310 313 322 321 313 312 314 315 315 314 313 314 315 316 316 317 318 317
302 302 301 300 300 300 300 300 300 299 299 299 299 299 299 300 305 310 309 304 301 300 300 300 300 299 299 302 302 300 299 300 299 302 303 303 304 304 303 303 302 304 304 303 304 304 302 301 299 300 304 305 304 304 306 310 309 308 311 313 313 315 316 317 317 317 319 321 317 310 308 310 316 322 317 315 316 315 315 315 313 312 313 315 316 316 316 316
302 302 301 301 300 300 300 300 300 300 300 299 300 300 299 301 308 311 305 301 302 301 301 301 300 300 300 300 301 300 300 300 298 301 303 302 303 303 302 306 306 308 309 306 305 305 302 303 302 301 301 301 306 308 307 308 308 311 316 315 314 317 317 318 317 317 321 321 312 307 308 309 312 318 315 314 316 312 312 317 315 310 309 310 311 314 314 315
303 302 302 302 301 300 300 299 300 300 300 300 300 300 302 305 306 304 300 301 303 301 300 300 300 301 301 300 300 300 301 301 298 299 300 300 301 299 300 303 305 309 311 307 308 308 305 304 302 301 302 302 308 311 310 312 312 313 316 314 314 315 316 318 316 314 318 315 308 306 308 309 313 316 313 313 315 309 306 310 310 305 304 305 307 311 313 314
303 302 302 302 302 302 300 300 300 299 300 301 299 300 307 311 305 300 300 302 300 297 297 298 300 300 301 303 301 300 301 300 299 298 298 300 301 299 299 297 298 307 310 306 308 311 309 307 304 306 307 303 306 313 314 315 314 313 315 315 317 316 317 318 311 309 313 311 307 306 308 312 315 313 312 312 309 303 302 304 305 304 303 303 305 309 311 312
302 302 303 302 302 302 302 301 300 299 300 300 299 303 309 308 302 298 300 301 297 296 296 298 300 300 300 300 299 299 301 299 299 299 299 302 304 302 301 299 298 304 308 307 307 309 311 309 305 306 306 303 305 308 310 313 314 312 312 314 315 315 319 318 313 313 314 311 309 307 308 316 316 309 308 307 302 299 301 303 303 303 302 302 303 306 308 310
302 302 302 302 302 301 301 301 300 300 299 299 303 309 309 305 301 299 301 300 298 298 297 295 299 303 302 301 299 298 300 300 299 300 301 301 301 299 299 299 298 300 307 310 306 305 309 307 303 302 300 301 304 302 303 311 315 310 308 313 313 311 314 312 308 311 312 312 313 311 311 314 312 306 302 300 299 300 301 302 303 303 303 303 303 304 305 306
303 303 302 303 303 302 302 302 301 301 299 301 308 308 304 303 300 298 300 298 297 298 298 298 301 305 304 304 303 299 298 299 300 304 303 298 298 298 297 298 297 297 303 309 307 307 308 306 304 303 300 300 302 301 301 307 314 312 308 310 308 304 310 312 307 305 306 311 313 309 313 315 310 306 303 301 301 301 300 301 303 303 304 304 304 304 304 304
302 303 303 302 302 302 302 302 302 301 298 303 311 304 297 298 296 296 297 296 295 296 300 303 301 300 301 303 303 300 299 299 300 305 304 299 300 299 297 298 296 295 297 301 305 306 306 305 304 305 305 301 298 300 300 299 306 313 311 308 304 302 308 313 314 312 308 309 313 309 311 315 312 310 306 302 303 303 302 301 301 303 304 304 305 304 304 304
302 303 303 302 303 302 302 302 302 300 299 306 311 301 296 296 294 295 295 294 295 296 301 304 299 296 299 301 301 298 300 302 302 304 303 302 302 298 296 298 297 295 293 296 305 305 304 307 306 305 305 300 299 304 307 302 301 305 307 303 303 308 312 309 311 316 312 309 313 312 309 309 311 313 310 305 305 305 303 301 301 303 304 304 305 304 304 304
303 303 302 302 302 301 302 302 300 299 303 311 310 300 296 296 294 294 294 294 295 297 300 301 297 297 299 299 299 297 298 301 301 302 303 302 302 297 295 296 297 297 293 295 303 303 304 309 306 303 302 302 305 308 310 309 303 301 304 302 303 310 313 308 307 311 314 311 310 310 312 312 311 313 314 310 307 306 306 305 303 302 302 303 303 303 304 303
303 303 302 302 302 301 301 300 299 302 306 305 301 297 295 296 295 294 294 295 294 296 299 298 297 299 300 298 297 296 298 299 298 299 301 300 300 297 295 295 297 298 295 295 299 299 304 311 306 303 305 307 309 303 301 305 303 303 307 305 304 304 303 304 303 302 308 315 314 310 314 321 314 308 309 308 307 305 305 305 303 300 300 300 300 300 300 300
303 303 303 301 303 301 301 302 299 298 302 298 295 296 296 296 296 294 295 295 294 294 296 297 298 299 299 298 297 296 299 301 298 298 298 298 299 297 295 294 295 296 297 299 301 299 305 312 307 305 308 307 303 297 295 297 297 301 303 302 304 305 306 311 306 299 301 309 312 309 313 321 311 301 302 302 299 298 299 301 301 300 300 299 298 298 297 297
304 306 303 301 303 302 302 305 295 291 299 300 296 296 297 297 295 294 295 295 295 295 293 295 297 298 298 298 297 297 301 302 299 298 298 298 298 297 295 294 294 294 297 301 301 296 300 309 308 304 303 300 296 292 291 292 294 297 297 297 301 303 309 318 310 303 301 299 300 302 307 316 305 294 296 297 295 296 298 300 301 301 301 299 298 298 297 297
304 305 303 301 303 301 302 306 299 296 300 297 293 294 296 296 295 294 294 294 295 295 295 296 296 296 297 296 296 298 299 299 298 298 299 298 297 296 294 294 294 294 297 301 300 296 301 310 308 303 304 302 296 292 290 289 292 298 297 295 297 298 303 309 306 306 306 302 301 302 306 313 303 292 294 297 297 299 299 300 300 299 299 298 298 298 298 298
303 302 302 302 303 302 304 308 307 304 300 294 293 295 295 295 295 296 295 294 295 295 297 298 295 295 295 293 296 297 296 298 298 296 297 298 296 295 294 295 295 294 296 300 299 299 304 309 306 306 310 310 306 303 300 295 295 300 299 295 296 296 298 301 300 303 307 304 304 307 310 312 301 293 295 297 297 299 299 299 299 298 298 298 298 299 298 298
303 302 301 301 302 302 303 304 305 306 302 299 298 297 296 296 296 296 295 294 294 293 296 296 294 295 295 293 296 297 295 297 298 296 297 297 297 295 295 296 295 294 296 296 295 299 304 305 308 313 312 311 314 314 310 305 301 299 297 295 296 296 297 300 301 304 306 300 298 306 311 307 300 297 299 298 297 299 299 298 298 297 298 299 298 299 298 298
304 305 302 301 301 301 299 297 299 303 304 303 301 298 297 299 296 295 296 295 294 292 293 294 293 295 296 296 299 301 297 295 297 299 298 298 299 296 294 296 295 295 297 295 293 296 301 301 304 313 315 312 315 309 299 299 301 300 298 296 297 296 295 299 303 307 309 302 301 307 305 301 300 300 300 300 301 300 298 297 298 298 298 298 299 299 298 298
304 306 304 302 301 301 299 297 296 299 300 302 302 298 299 301 297 295 296 296 295 293 293 293 294 297 300 299 301 303 299 297 299 300 299 299 299 295 294 295 295 295 297 297 293 296 306 304 298 303 309 302 301 298 291 294 299 299 299 299 299 297 294 298 303 303 302 303 307 307 299 299 303 301 300 302 303 299 297 297 299 298 298 299 298 299 298 298
304 304 301 302 303 302 303 301 297 296 297 300 301 298 300 303 300 298 298 295 294 294 295 296 296 297 300 299 300 303 301 300 301 299 298 299 298 298 297 295 294 295 296 295 292 295 308 307 293 295 303 295 291 293 292 295 296 295 298 300 300 298 296 299 302 299 298 304 309 303 296 299 304 302 301 301 300 299 298 297 298 298 298 298 298 299 299 298
303 303 300 302 302 299 300 299 297 298 300 301 302 301 303 306 302 298 296 295 296 294 295 299 298 297 298 298 300 305 304 302 302 300 299 300 299 299 301 298 296 294 294 297 293 291 302 304 291 292 299 294 291 293 292 294 295 295 299 300 298 299 298 299 299 296 296 301 303 298 297 301 301 301 300 298 297 299 298 297 298 298 298 299 298 299 299 299
303 304 301 302 300 297 297 297 298 305 304 300 303 302 301 306 304 299 295 296 299 297 295 298 300 296 295 297 301 305 301 299 301 300 299 300 299 299 300 300 298 295 295 298 295 292 298 299 290 291 298 295 294 294 293 294 296 297 300 297 295 298 297 296 296 296 297 298 298 295 298 302 299 295 295 296 296 297 297 297 299 298 299 299 299 299 300 299
303 304 302 304 304 299 298 297 297 306 307 302 304 302 301 305 304 299 297 295 296 298 296 296 298 295 294 297 301 300 296 294 297 297 295 297 298 297 297 297 296 298 301 299 296 299 304 299 290 294 300 298 295 295 297 295 294 298 302 300 297 298 299 299 298 299 300 302 300 296 300 306 301 292 292 295 296 296 297 298 299 299 299 300 300 300 300 299
303 304 302 305 306 299 297 297 297 303 305 301 301 301 301 301 297 297 301 297 292 295 296 293 295 297 298 299 299 296 294 293 295 294 294 295 295 294 295 294 293 298 303 301 298 299 301 302 299 300 304 300 295 296 300 297 297 304 308 303 298 298 300 300 299 298 298 301 303 303 304 305 297 292 296 297 295 296 298 299 299 300 300 300 300 300 300 299
Wind_Speed
8 8 7 7 6 5 4 3 3 7 8 7 6 6 7 7 7 8 8 7 6 4 3 4 5 6 6 4 4 3 4 6 11 14 11 10 10 7 8 9 9 8 6 4 3 3 4 3 4 6 9 11 11 14 14 9 9 7 3 4 4 5 5 6 8 7 9 9 12 15 14 14 9 11 18 15 16 20 18 16 14 13 13 13 16 17 16 17
8 8 8 7 6 5 4 3 2 6 7 5 5 5 5 6 6 7 8 7 6 5 3 2 3 4 4 4 5 6 7 7 9 12 13 10 6 5 7 8 9 8 6 3 2 2 4 2 3 6 10 11 9 12 11 7 7 4 2 4 3 5 4 4 10 10 11 15 16 15 15 17 14 16 16 9 10 17 17 14 15 17 16 15 16 15 14 16
9 8 8 7 6 4 3 3 2 4 6 4 5 5 6 7 7 7 8 8 7 5 2 2 2 3 3 5 6 7 9 7 7 11 14 10 6 6 7 8 10 9 6 3 1 1 3 2 4 8 11 10 8 11 9 5 5 1 3 4 3 5 2 4 11 10 15 25 22 15 16 17 15 15 13 12 13 12 10 8 11 15 14 15 14 13 15 14
8 7 7 7 6 4 3 3 2 3 5 4 5 6 7 10 11 11 11 10 8 6 4 1 1 3 3 5 5 7 9 5 5 11 14 12 8 8 9 8 9 9 6 3 1 1 3 3 6 9 10 6 6 10 7 3 4 2 3 3 3 3 3 4 13 17 20 25 23 21 20 16 13 14 15 15 12 7 5 6 9 13 14 15 13 13 13 13
8 7 7 6 5 4 2 2 2 3 4 5 6 7 9 13 14 14 13 11 9 7 7 3 2 3 4 5 5 7 9 4 4 10 13 13 10 9 10 9 9 9 6 3 1 1 3 4 7 10 8 4 6 8 4 4 6 5 3 2 5 1 4 6 18 27 25 22 21 21 16 14 16 16 13 10 7 4 6 9 12 14 14 14 13 13 12 12
8 8 7 6 4 3 2 2 2 3 4 6 7 9 12 13 13 13 11 9 8 8 8 5 3 4 4 5 5 7 5 1 4 10 12 14 12 10 10 10 10 9 6 4 1 1 4 5 7 9 5 3 5 5 3 4 6 5 3 7 9 6 8 11 21 27 30 27 17 13 14 19 21 16 14 14 11 8 10 11 13 13 13 13 12 12 12 12
8 8 8 7 4 2 2 2 2 1 3 6 8 10 11 13 11 9 8 5 5 7 8 7 5 4 4 5 5 5 1 0 6 10 12 14 13 10 10 10 10 9 6 3 1 2 4 6 7 7 5 4 4 4 7 9 9 8 3 7 11 15 15 16 21 23 30 30 17 16 19 16 15 11 14 17 13 10 11 11 12 12 12 11 11 12 12 13
8 8 8 7 5 2 3 4 2 1 3 5 7 10 13 14 11 8 7 6 5 5 6 7 6 4 4 5 4 2 2 5 9 12 13 14 12 10 9 9 10 9 4 3 2 4 6 6 7 7 4 2 4 5 9 12 11 8 4 4 10 17 19 22 24 24 28 30 26 24 20 15 16 16 13 12 10 11 10 10 11 11 11 10 10 11 12 12
8 7 7 7 5 2 4 5 3 3 4 7 10 13 15 15 13 9 8 7 6 4 2 5 6 5 4 5 4 2 3 8 11 13 14 13 11 9 8 8 9 8 4 4 2 4 5 6 7 6 4 4 7 6 5 5 4 5 8 10 14 17 20 25 26 24 25 25 28 24 16 15 17 15 11 8 9 10 9 11 10 10 11 10 10 10 10 9
8 7 7 6 5 3 5 6 5 4 5 8 10 14 16 17 15 12 10 8 7 5 2 3 5 5 4 4 3 2 5 9 11 12 12 11 9 6 7 8 8 7 3 3 2 3 6 7 7 8 8 7 7 4 4 5 10 17 22 21 20 21 19 22 25 23 21 17 22 22 11 10 9 6 5 5 8 9 10 11 9 10 11 10 10 10 9 7
8 7 6 5 4 4 7 8 6 5 6 7 10 13 16 19 18 15 10 8 7 5 4 2 2 2 2 3 2 3 7 11 12 11 9 8 7 5 5 6 7 5 2 2 3 5 6 7 9 8 5 5 8 9 9 20 27 29 32 24 18 22 19 17 18 17 15 11 18 24 14 9 8 4 4 5 8 8 10 11 9 10 10 10 10 9 9 8
8 8 7 5 4 4 8 10 8 6 5 7 10 13 15 17 19 17 10 7 7 6 5 3 1 1 1 2 4 4 9 12 12 12 9 7 6 5 5 6 5 5 2 2 4 5 6 6 7 4 4 10 9 9 13 27 30 25 26 18 9 14 13 11 10 9 11 9 12 17 10 6 6 4 3 5 8 8 10 10 9 9 9 9 9 9 9 8
8 8 8 6 4 3 9 12 10 7 5 6 9 11 13 15 19 17 10 8 8 7 5 2 1 1 1 2 4 6 9 11 11 11 9 9 7 6 6 6 5 4 3 1 4 5 6 6 5 7 13 13 6 10 18 19 18 13 14 12 7 7 6 7 7 7 10 7 3 4 4 1 3 3 3 5 8 8 9 8 8 8 7 7 7 7 7 7
7 8 9 8 5 4 8 13 12 8 5 7 8 9 11 14 18 15 8 8 8 7 6 2 2 1 3 3 5 8 8 8 9 9 8 8 7 5 6 7 7 5 3 2 5 6 7 7 9 12 13 12 14 22 18 6 6 7 6 5 4 5 2 5 6 5 6 2 2 1 3 2 1 2 2 5 7 7 7 6 6 6 5 5 5 6 6 6
8 8 9 9 7 5 8 14 15 10 7 7 6 7 10 15 18 12 7 10 12 10 7 5 4 2 3 4 5 7 8 7 8 8 7 7 5 4 5 7 7 5 1 4 7 7 7 7 10 11 13 21 26 19 8 3 3 3 5 2 2 3 3 3 6 6 3 1 4 4 3 1 2 3 2 5 6 6 5 3 4 6 5 5 6 7 7 7
10 9 11 11 9 6 8 13 17 14 9 7 4 5 9 15 19 10 4 8 13 14 9 4 3 4 4 4 4 7 10 9 9 9 7 5 5 3 3 3 3 1 2 6 8 7 8 7 11 15 18 19 15 8 6 5 1 3 3 4 2 4 5 3 4 8 4 2 6 6 4 2 2 5 4 4 5 4 3 2 4 6 6 6 8 9 9 9
11 12 13 14 12 8 9 13 18 19 13 8 5 2 6 13 19 14 6 6 6 10 12 8 3 2 6 7 6 10 13 10 11 10 5 4 4 3 3 2 2 4 7 9 8 7 7 8 12 14 12 6 3 7 8 5 5 2 2 3 3 5 6 4 2 6 8 3 5 6 5 3 3 7 6 4 4 3 3 2 5 6 7 6 8 9 10 10
13 15 15 15 13 8 8 13 17 20 18 13 8 4 2 8 16 19 15 10 6 5 9 14 8 3 4 10 10 13 13 9 11 9 4 4 4 4 4 3 4 7 10 9 6 5 6 7 8 6 3 2 2 6 7 7 9 7 5 6 4 4 5 5 2 4 7 6 6 6 6 4 4 6 6 4 4 3 3 3 5 6 6 6 8 9 9 10
16 18 16 14 12 6 5 12 16 19 21 18 13 9 4 2 8 16 20 17 14 7 3 11 11 3 3 11 14 14 9 6 11 9 3 4 4 4 4 5 6 8 8 6 2 3 5 6 6 5 4 3 3 2 4 5 8 9 9 9 8 7 5 4 2 3 4 8 7 5 5 5 4 5 4 5 5 4 3 3 5 6 6 7 8 8 8 10
19 19 15 12 9 5 1 9 14 18 20 19 17 13 6 1 2 8 16 19 16 10 5 8 10 5 4 9 15 14 6 6 13 10 4 3 3 4 5 4 5 6 5 2 0 2 5 6 4 3 2 1 1 2 3 5 12 12 11 9 9 9 5 2 2 3 2 6 5 3 6 5 4 3 3 4 5 5 4 4 6 7 8 8 8 8 8 8
20 19 13 10 7 4 1 6 12 15 18 19 19 13 6 3 1 2 8 15 15 9 8 10 10 10 8 9 15 15 8 8 15 13 6 3 4 3 3 3 4 5 3 0 2 4 6 6 3 2 2 3 3 4 2 10 14 11 11 10 8 7 5 3 2 4 3 5 3 2 6 5 3 2 3 4 4 4 5 6 7 9 9 8 9 9 9 8
20 18 11 7 5 3 1 5 9 13 16 18 19 15 6 3 4 5 6 9 12 11 8 10 12 13 11 9 12 15 13 12 14 16 10 5 5 3 3 6 5 3 3 2 4 5 5 4 2 4 3 2 1 0 7 13 12 10 8 9 7 5 6 4 4 5 4 4 2 1 4 3 2 1 3 5 5 5 6 8 8 8 9 10 11 10 9 9
19 17 10 5 3 3 2 4 7 11 14 16 17 16 8 5 7 6 7 6 7 10 10 12 14 16 15 10 11 12 14 13 11 16 15 9 8 8 7 7 5 3 5 4 6 5 4 2 5 4 1 3 5 6 11 12 7 6 6 8 7 4 4 3 3 6 6 5 4 3 4 2 2 1 2 6 8 8 8 9 8 8 10 11 11 11 10 10
19 16 8 2 3 3 2 3 6 8 12 15 14 14 9 5 7 3 5 4 2 5 10 12 12 16 16 12 13 9 9 11 12 16 16 11 9 8 7 5 6 5 5 5 9 8 5 2 5 1 1 4 9 9 11 10 5 5 4 6 9 5 5 6 4 5 7 6 5 4 4 1 2 2 3 4 6 8 9 9 10 11 12 12 12 12 12 11
18 15 6 1 2 3 2 2 5 6 9 12 12 12 9 5 7 5 2 4 2 5 9 11 9 14 16 14 14 7 3 10 15 17 15 13 9 5 4 5 5 4 3 5 10 8 4 5 4 4 3 6 10 7 4 6 6 4 4 3 8 10 11 9 5 3 5 4 2 4 3 2 2 4 5 2 3 6 7 10 13 14 13 13 14 14 12 11
17 14 6 1 2 3 3 2 3 5 8 10 11 11 8 5 6 5 1 4 3 5 7 9 8 12 15 16 14 4 1 6 12 17 14 12 10 6 3 5 4 3 1 4 6 4 3 7 4 4 7 8 10 6 3 2 8 4 2 2 8 12 12 8 4 4 3 1 1 3 4 2 3 4 7 4 4 5 6 10 14 15 15 15 15 14 13 13
16 13 6 2 2 3 3 2 2 5 6 7 10 10 7 5 5 3 0 4 4 4 5 8 7 10 13 16 14 3 1 5 7 16 16 11 10 10 6 4 4 3 0 2 4 2 3 7 7 3 7 8 7 5 4 2 7 2 1 4 8 11 11 7 7 5 2 2 2 4 4 1 3 4 4 3 6 7 7 9 12 15 16 16 16 15 14 15
15 13 8 3 2 2 2 3 2 5 3 5 10 10 8 7 4 2 3 4 4 4 4 5 7 13 13 13 17 10 3 6 5 10 16 12 10 13 10 4 4 4 4 3 3 1 2 5 6 3 5 6 2 0 3 2 7 1 1 6 7 9 8 6 8 5 2 3 2 5 4 2 3 4 4 2 5 9 10 10 12 17 19 18 18 18 18 19
13 12 9 5 3 3 3 3 3 3 2 5 10 9 8 7 4 2 6 2 3 3 4 6 6 13 15 11 16 16 10 10 7 6 12 13 11 14 11 4 9 12 12 9 6 1 1 3 3 1 3 3 1 3 4 2 6 5 6 9 8 8 8 7 6 4 4 4 1 4 4 1 4 4 2 1 3 8 9 8 11 19 23 23 22 22 22 23
12 11 9 5 3 2 3 3 3 3 4 7 9 9 9 6 3 5 5 1 1 4 5 6 4 9 15 10 9 15 11 10 11 10 12 13 13 16 11 5 11 12 9 11 9 3 2 3 2 3 3 2 3 3 3 6 11 12 8 9 8 7 6 5 4 4 5 2 4 4 3 1 2 4 2 3 4 5 6 5 8 15 21 23 24 24 23 22
12 10 7 5 3 2 2 3 4 5 6 7 9 10 9 3 3 6 3 3 1 5 5 5 4 6 10 5 3 10 8 8 13 11 10 9 11 14 9 4 6 6 5 7 6 5 6 4 1 3 4 1 4 7 10 9 10 8 5 6 7 5 5 4 5 4 4 2 5 3 3 1 2 4 3 4 5 4 5 4 5 8 10 12 16 19 19 18
12 11 7 4 4 2 1 3 5 6 6 8 10 10 6 3 4 3 1 4 2 3 2 2 3 5 5 3 3 6 4 4 9 7 5 4 5 7 5 2 1 3 4 3 2 5 5 2 2 2 5 6 5 7 7 6 5 5 5 6 5 3 3 3 2 2 1 3 4 2 1 1 4 6 3 4 6 5 6 6 4 6 5 3 5 11 14 14
10 11 9 5 3 3 1 3 5 5 6 9 8 4 4 5 2 2 3 3 1 2 2 2 3 3 4 4 4 5 3 3 5 5 3 2 4 3 2 2 2 2 2 1 2 4 2 1 6 6 5 9 5 6 3 2 2 5 5 4 4 4 3 1 1 2 1 3 3 3 2 1 4 4 4 5 4 4 5 5 4 4 4 5 2 3 7 9
7 10 10 6 3 2 2 2 5 4 5 7 5 2 6 4 1 1 2 3 1 2 2 2 4 4 3 3 2 4 3 3 4 5 4 3 5 4 4 5 6 3 3 3 2 3 3 2 7 5 3 7 6 4 4 4 5 3 3 4 4 4 4 4 3 2 2 1 2 3 2 2 2 2 4 5 3 2 1 3 3 1 3 5 6 5 4 4
6 10 11 8 6 3 2 1 4 4 5 5 3 5 5 1 3 1 1 4 1 2 3 2 3 4 4 3 3 2 2 3 3 5 5 4 3 3 3 4 6 4 3 3 1 1 3 2 4 3 3 4 4 3 1 5 5 0 1 4 2 2 4 4 3 4 4 1 0 2 3 3 3 2 3 2 1 2 2 2 2 2 3 4 6 8 8 7
2 8 12 10 7 5 3 1 4 5 6 3 6 5 2 3 3 3 1 1 1 0 2 2 3 4 4 4 3 4 3 2 3 4 4 3 1 2 2 2 3 3 2 3 2 1 3 2 4 4 4 5 5 3 4 4 2 1 2 2 1 3 6 6 2 0 3 2 1 1 2 4 2 2 4 3 3 2 3 2 2 3 3 4 6 8 8 8
2 4 11 12 8 6 4 3 4 6 5 3 6 2 3 2 2 2 1 1 1 2 3 1 1 2 2 3 3 5 4 3 3 4 2 1 2 3 3 3 2 2 2 2 3 0 2 3 3 4 4 4 4 4 8 8 4 2 2 3 2 3 5 5 2 3 4 1 3 2 2 4 2 2 3 3 2 2 3 2 2 3 4 4 6 7 7 6
1 2 9 13 9 7 5 5 5 5 3 5 5 1 1 1 1 1 1 2 2 2 4 2 0 0 1 0 2 5 4 3 3 3 2 1 2 2 2 3 2 2 5 2 2 1 2 4 3 2 2 3 5 3 5 8 8 4 4 5 3 3 2 2 3 2 2 1 3 4 3 3 3 3 3 2 6 5 3 2 1 4 5 5 6 6 5 5
0 1 8 12 9 8 6 5 3 1 2 5 2 1 1 1 1 1 1 1 1 2 3 2 0 2 2 2 1 3 3 3 2 2 2 1 2 2 2 1 3 4 8 4 2 1 2 3 1 2 1 2 4 4 1 4 6 6 4 2 2 3 3 2 2 3 3 2 2 3 3 3 5 5 4 7 8 7 5 3 4 5 5 5 5 4 3 3
1 2 6 9 7 8 7 5 3 3 4 3 3 2 0 1 1 1 1 0 1 1 1 1 1 2 1 1 0 1 2 3 2 2 1 1 2 1 1 1 2 5 7 4 3 1 2 3 2 1 2 0 2 2 1 1 1 2 2 2 1 2 2 2 2 2 3 3 3 1 2 5 5 3 5 6 6 8 7 5 6 5 5 5 4 3 2 1
2 2 4 6 4 4 6 7 6 5 4 2 2 1 0 1 2 1 1 1 1 0 0 2 2 2 2 1 1 0 2 3 2 2 1 1 2 1 1 1 1 3 4 3 3 2 2 3 3 2 3 2 1 2 0 1 1 2 1 1 2 2 3 4 1 2 2 3 3 3 1 6 5 2 3 4 3 6 6 5 6 5 5 4 2 2 2 2
2 2 3 4 4 4 4 5 5 4 4 2 1 1 0 1 2 1 2 1 1 1 1 1 1 2 2 1 0 1 2 2 2 1 1 0 1 1 1 3 3 2 1 2 1 1 2 4 5 2 1 1 2 2 1 0 0 3 1 0 3 2 4 5 2 2 1 2 1 3 1 6 5 1 3 4 2 2 4 3 4 4 4 4 3 3 4 4
4 3 3 3 4 5 5 4 4 4 2 1 1 1 1 1 2 1 1 1 1 0 1 1 0 1 1 1 1 2 2 2 1 1 0 1 1 1 2 5 4 1 1 1 1 1 1 4 4 2 3 3 3 3 2 2 2 2 1 1 3 1 2 4 4 3 3 2 2 2 2 6 4 3 3 2 2 1 3 4 4 5 5 5 4 3 4 5
6 7 7 6 2 2 3 3 1 1 0 1 2 2 1 0 1 1 1 2 1 1 1 1 1 0 1 1 2 1 1 1 1 1 0 1 1 1 2 6 4 2 2 2 0 1 1 2 4 4 3 4 5 5 3 2 0 1 1 1 2 2 4 3 2 4 1 4 5 4 3 6 4 4 3 1 1 2 5 5 5 6 7 7 4 3 4 6
5 5 8 10 5 2 4 6 6 5 2 1 3 1 1 1 0 0 0 1 1 1 2 1 1 2 1 1 3 2 1 1 1 1 1 1 1 1 3 6 5 3 3 3 3 2 2 2 3 5 4 2 2 2 3 3 2 1 1 1 1 3 4 2 2 3 1 3 4 4 4 5 5 3 2 2 1 3 6 6 6 6 7 7 5 3 5 6
4 2 2 6 7 8 9 9 10 8 4 3 3 1 1 1 1 0 1 1 1 1 2 1 1 2 1 2 3 3 3 2 2 2 2 1 2 1 3 4 5 5 4 4 5 4 4 3 3 6 7 6 6 5 3 1 2 2 2 3 2 2 3 3 3 2 3 3 2 5 4 3 5 4 4 5 4 4 7 7 7 7 7 7 6 4 5 6
2 1 1 2 4 9 11 8 10 9 5 5 3 0 1 0 2 1 1 1 1 1 1 1 1 1 1 2 3 2 2 3 3 3 2 1 2 2 2 2 4 5 3 2 5 3 5 2 1 4 4 4 5 3 1 1 2 4 4 5 4 3 4 4 3 4 5 4 3 7 4 2 6 7 7 8 6 6 10 11 9 8 8 7 7 6 6 7
1 2 2 3 2 3 5 3 7 9 6 4 3 1 2 1 1 1 1 1 1 1 1 1 1 1 1 2 3 2 1 3 3 1 1 1 2 3 2 1 3 4 2 2 4 3 5 2 1 2 1 2 1 1 2 1 0 1 3 6 5 5 7 7 6 6 6 5 5 5 6 6 7 6 7 10 12 11 11 11 9 9 9 8 7 6 6 6
3 4 4 4 3 3 5 6 10 11 7 3 3 2 3 3 2 2 1 1 2 2 1 1 2 2 1 1 3 3 2 2 1 2 2 2 0 1 1 1 1 2 2 2 4 3 4 2 0 2 2 3 4 3 2 2 1 3 3 5 5 5 8 6 4 4 4 6 6 3 4 8 9 8 9 11 14 14 10 8 9 9 8 7 7 7 7 7
3 4 5 7 7 7 7 8 10 8 4 2 2 1 4 6 4 2 0 1 1 1 1 1 2 1 2 2 4 2 3 3 2 3 4 4 1 2 2 2 1 2 3 2 3 3 3 2 0 3 2 4 4 3 2 2 1 3 5 4 3 3 4 4 2 2 2 6 5 2 2 8 8 9 11 8 9 10 9 9 9 8 7 7 8 8 8 7
4 3 5 7 6 3 3 4 5 5 1 0 2 3 4 5 7 6 3 0 1 1 1 2 4 3 3 4 5 2 1 1 3 3 4 4 3 3 1 1 3 1 3 2 1 3 3 2 1 4 3 3 3 4 3 3 2 3 8 7 7 5 4 4 4 5 6 5 3 3 2 7 5 4 7 6 6 8 9 10 9 7 7 8 8 8 8 8
5 5 7 6 3 1 3 2 2 3 3 2 3 4 3 5 10 10 4 1 2 1 1 5 6 3 3 4 3 2 3 6 8 8 8 8 7 7 5 3 3 3 2 3 2 2 3 5 3 3 2 3 4 3 2 3 4 4 8 9 12 10 5 3 3 6 7 7 7 4 5 6 4 1 6 7 6 8 10 10 9 8 7 8 8 9 9 9
Wind_Direction
321 321 322 323 326 326 314 310 348 1 0 357 8 19 19 20 15 8 357 350 344 348 8 15 14 7 3 355 344 350 334 347 359 3 20 34 24 360 354 356 353 355 350 330 298 231 216 221 200 180 173 172 170 175 173 173 174 166 142 121 145 172 182 176 173 160 136 142 158 165 151 129 127 120 115 110 106 101 96 97 101 114 122 134 141 142 140 136
326 322 322 324 322 317 306 291 332 359 358 357 5 5 7 7 1 360 351 342 331 328 360 18 14 5 357 345 339 342 335 333 345 0 15 15 6 1 357 357 358 356 358 346 306 218 213 217 184 168 163 161 158 167 167 169 162 136 100 122 174 186 174 169 158 145 135 146 150 153 149 133 132 134 130 120 101 98 93 91 104 111 116 134 141 143 144 140
329 325 324 325 318 310 294 274 302 353 360 8 7 0 355 346 341 339 332 328 318 304 327 28 8 345 341 330 333 343 336 324 337 2 10 4 352 352 353 356 357 356 2 5 356 196 206 198 171 163 159 151 147 162 159 153 160 106 86 121 206 190 110 99 139 140 143 145 139 135 137 125 126 134 132 126 106 90 84 92 107 106 117 138 143 149 150 145
335 330 325 323 317 308 287 263 272 333 357 8 2 357 344 334 329 321 314 307 300 281 274 328 339 318 322 319 322 336 337 330 350 4 2 360 355 345 350 353 352 354 356 358 22 170 193 172 166 160 152 138 135 155 149 131 150 70 81 134 241 180 73 71 131 129 130 137 133 129 124 113 122 129 127 124 105 77 75 98 119 120 131 143 146 153 152 149
341 341 332 325 316 305 284 253 258 303 333 344 345 342 330 324 320 313 304 291 283 270 261 263 309 307 308 309 303 318 334 344 355 358 354 355 355 343 349 352 347 349 357 357 352 154 182 169 162 157 145 115 128 145 129 108 113 74 54 19 327 243 85 87 129 131 128 126 122 122 117 117 121 110 109 112 93 106 110 113 130 132 141 148 148 149 149 151
344 346 336 329 324 302 267 235 249 287 314 331 336 330 325 326 324 318 310 289 276 269 259 250 274 306 311 309 304 315 338 56 335 346 347 349 349 346 347 345 347 348 356 358 340 140 175 171 161 156 129 91 129 133 106 118 118 93 31 20 27 81 106 109 125 133 134 124 112 114 118 121 113 86 83 89 79 104 121 127 135 137 146 149 147 147 150 153
344 345 336 335 335 295 229 195 212 292 327 339 337 335 342 348 348 346 343 325 297 279 262 248 256 288 311 317 318 317 339 220 321 330 335 342 342 344 345 340 346 343 349 8 352 143 162 163 163 149 105 94 127 112 96 90 88 102 81 27 54 80 95 115 121 129 133 124 114 118 115 108 103 93 90 86 82 106 124 135 139 141 146 148 150 148 150 152
343 344 336 336 333 288 195 178 177 62 17 10 4 6 9 4 1 358 352 349 341 311 261 242 242 265 309 325 322 314 331 321 321 324 328 333 334 337 341 340 342 337 352 33 57 139 146 146 155 140 104 117 141 135 112 85 62 72 97 68 72 77 91 111 114 115 118 119 123 117 98 83 97 107 90 77 94 109 123 140 141 144 145 148 152 151 153 150
342 341 334 331 323 279 185 177 162 110 61 46 39 34 25 11 1 351 336 326 333 343 278 230 229 251 294 324 326 334 337 324 322 324 326 325 325 331 336 344 344 338 2 41 79 145 144 131 139 135 121 130 127 127 113 91 57 78 100 94 89 84 92 106 105 105 107 115 125 110 83 90 103 102 79 74 105 108 127 139 142 148 146 147 152 156 158 151
337 337 333 324 310 261 188 179 163 127 87 66 55 46 36 22 8 355 347 337 330 340 335 232 229 249 281 310 339 12 324 323 325 325 326 321 319 326 337 347 344 335 1 54 75 129 132 125 127 119 110 117 120 76 23 110 117 109 100 85 86 87 87 99 100 104 104 106 119 111 91 94 99 99 83 98 114 115 133 133 139 150 147 150 154 158 158 158
330 332 333 325 306 243 191 180 171 139 104 77 60 50 40 27 14 1 353 359 3 8 18 359 252 260 279 302 18 32 325 328 335 335 331 322 319 319 334 347 344 340 9 84 90 112 118 119 130 121 97 120 113 65 79 119 120 114 102 82 77 86 80 85 93 104 103 92 109 110 101 71 61 73 86 126 130 128 134 130 137 146 147 154 159 166 166 170
323 319 319 324 316 237 191 182 176 149 115 80 62 48 38 26 13 2 350 349 354 359 9 10 347 300 268 335 31 5 335 340 342 344 342 332 334 324 323 340 343 345 352 112 115 115 111 112 129 124 114 137 122 80 108 124 122 116 105 93 79 83 71 56 67 95 105 113 114 103 97 47 29 62 90 130 143 143 135 130 138 144 149 155 162 172 175 177
319 315 310 307 308 248 194 187 182 165 132 86 65 46 35 21 9 3 352 340 335 334 339 343 56 67 39 30 31 3 347 352 351 351 348 335 329 316 313 329 335 339 334 170 143 125 113 99 105 118 126 133 126 119 133 129 118 107 97 106 113 86 49 25 55 90 97 118 146 82 111 77 19 91 129 140 148 152 139 133 142 146 153 157 166 176 183 186
319 318 312 302 293 258 203 191 186 177 142 97 70 47 34 19 9 5 4 5 358 350 353 38 145 107 48 56 36 15 4 5 1 359 356 340 321 296 293 312 317 318 318 186 157 133 112 95 109 121 123 125 121 121 126 113 95 106 89 88 109 110 55 16 45 79 85 67 316 70 128 156 126 124 173 155 149 152 143 146 154 155 164 169 182 194 198 199
320 316 314 308 295 263 215 194 189 180 145 113 85 52 36 23 15 12 35 45 36 25 25 81 102 64 54 50 29 18 14 15 9 0 355 351 336 298 282 297 302 303 294 163 158 133 109 104 117 117 113 124 126 120 110 53 43 91 111 99 41 98 122 48 33 41 80 74 35 81 123 101 135 156 185 154 145 147 142 165 183 176 180 189 206 217 223 220
325 317 312 310 305 272 224 200 190 183 162 140 120 59 37 30 23 21 49 40 39 41 43 76 60 42 52 27 16 19 14 13 10 359 346 356 1 337 320 306 294 305 132 149 151 130 107 101 109 116 122 129 130 121 103 101 62 348 102 137 109 111 133 128 45 30 40 119 32 47 132 121 121 153 160 143 141 149 143 181 213 207 203 201 213 225 234 231
337 327 317 312 309 280 227 203 193 190 184 174 168 79 43 39 34 37 32 359 22 43 45 43 9 56 50 21 8 2 0 5 5 0 355 17 32 38 42 58 104 110 125 137 141 121 101 105 116 121 122 126 144 131 124 137 178 190 69 106 101 121 132 133 131 18 20 76 40 37 107 99 92 134 144 147 145 162 170 202 231 224 217 219 228 232 235 235
347 338 328 319 314 291 226 203 197 196 196 196 201 207 80 48 41 45 45 32 27 36 41 34 29 124 37 6 1 347 345 359 5 5 22 52 61 64 63 83 108 119 123 124 129 107 97 107 117 117 90 101 169 144 149 169 166 157 131 123 106 98 103 102 128 348 17 70 69 58 95 92 91 120 135 148 156 185 194 215 234 229 228 233 240 241 236 234
349 344 336 326 323 315 225 201 197 198 201 203 210 221 233 34 44 46 47 48 48 54 35 18 28 103 289 342 358 351 343 13 14 11 45 80 73 65 72 97 118 126 118 111 98 76 103 102 102 123 130 147 167 147 170 151 126 127 122 121 124 107 84 81 74 355 49 76 51 50 103 117 115 119 138 152 171 193 203 228 229 230 237 237 244 248 241 237
349 348 342 332 331 339 224 192 193 198 200 202 211 222 232 206 59 44 49 51 53 59 45 21 26 22 325 342 3 5 3 33 24 20 51 93 100 83 77 105 117 97 84 115 121 54 104 100 84 126 143 260 262 218 217 103 103 114 113 110 118 112 85 53 52 348 43 81 31 34 106 114 112 118 152 162 181 193 204 230 227 223 229 235 244 249 246 243
349 350 344 337 342 358 81 178 187 193 195 200 209 215 218 203 170 70 66 56 48 45 32 28 28 19 8 360 8 14 19 31 32 34 48 104 126 102 57 87 95 58 19 287 109 80 93 93 45 352 284 269 284 265 186 106 106 109 112 115 103 101 101 74 51 345 3 84 52 44 103 99 89 116 171 172 186 203 210 227 230 226 229 238 245 246 246 241
349 350 348 343 352 18 79 172 180 186 191 198 206 210 214 188 140 98 92 75 49 42 32 25 28 25 21 11 9 16 23 25 28 34 44 83 104 102 77 76 77 57 350 3 101 89 76 72 1 332 286 226 350 314 111 100 104 108 114 120 103 115 124 83 34 14 16 91 103 89 98 81 36 105 184 199 212 230 226 229 235 234 238 245 249 250 244 238
350 351 354 349 1 29 81 164 171 178 188 197 205 210 210 172 146 91 74 96 53 39 38 30 27 24 21 15 5 13 32 29 9 17 33 63 79 72 80 76 68 60 7 33 104 109 96 26 325 324 267 119 91 94 102 91 84 101 114 124 128 154 131 85 41 51 54 85 117 117 90 50 314 338 204 213 224 238 240 239 241 245 250 251 253 255 248 241
352 355 358 2 25 42 75 150 167 173 188 198 204 208 207 191 178 138 68 95 37 14 27 25 22 20 15 6 1 8 41 36 12 12 25 48 63 61 69 69 69 58 16 58 90 92 97 348 331 5 149 109 102 92 100 102 72 55 77 120 139 146 94 98 132 98 71 65 86 97 75 14 263 250 248 221 219 237 242 239 240 244 249 252 251 250 247 241
354 358 4 44 54 57 74 142 170 174 188 197 202 204 205 210 198 185 84 72 3 334 4 11 13 14 6 355 356 357 51 37 23 15 23 40 49 70 72 45 62 57 6 64 80 81 57 347 357 92 86 91 101 82 68 114 107 63 32 97 136 126 103 111 140 106 68 49 40 78 90 272 261 229 234 205 194 234 232 229 239 246 247 249 251 252 251 249
358 2 12 66 84 68 74 123 171 182 188 192 196 195 200 209 194 193 126 61 9 313 350 2 360 7 3 355 353 350 95 28 22 21 29 40 42 84 84 20 55 88 97 81 81 91 3 350 10 96 102 90 91 79 354 80 111 90 2 96 125 115 112 123 117 73 85 145 329 64 122 245 301 233 225 214 221 250 228 222 237 245 245 246 251 259 260 261
3 7 17 50 94 72 66 74 148 180 183 189 191 188 194 190 173 203 235 50 4 326 356 355 353 6 5 6 12 63 168 335 8 26 34 46 50 80 85 11 40 51 215 131 74 35 344 6 13 41 97 90 89 83 338 16 107 98 317 117 118 112 116 120 92 79 126 146 3 22 92 108 309 257 252 236 226 250 249 239 248 250 248 248 254 262 263 264
7 11 21 40 64 73 83 78 134 178 183 187 184 182 185 179 170 171 94 67 335 334 357 344 5 10 8 23 36 59 58 0 14 15 29 53 62 75 77 46 92 55 7 105 107 15 344 21 6 345 77 83 101 111 303 61 87 94 192 110 106 103 105 96 88 91 83 95 23 341 34 74 278 279 326 332 218 239 245 242 251 254 255 256 259 264 264 264
9 11 20 33 47 65 105 104 128 176 196 174 172 175 174 168 173 106 73 77 289 334 347 353 7 357 1 27 34 35 39 34 34 12 36 58 65 80 88 74 91 73 39 62 100 101 8 38 7 345 76 89 169 267 253 110 90 154 143 98 86 77 75 72 80 99 60 68 196 311 2 89 267 283 344 46 221 237 238 236 243 247 251 255 259 262 262 264
8 7 14 27 46 63 108 119 124 143 150 160 163 163 157 149 130 67 46 265 265 336 333 4 357 335 360 20 13 17 32 28 20 30 50 59 63 74 89 89 82 78 51 58 72 57 43 53 44 54 62 164 153 43 30 104 122 142 123 85 80 60 55 60 50 81 64 12 245 285 335 96 280 283 225 188 221 224 224 242 252 248 250 252 254 257 258 262
11 6 7 24 45 55 122 124 124 133 146 161 159 149 146 123 70 84 63 246 286 344 337 7 355 345 12 34 349 360 18 15 13 28 40 41 46 45 48 60 57 58 46 44 51 34 29 33 22 45 39 86 126 64 46 78 110 120 101 93 94 47 26 39 8 39 79 275 257 282 316 129 216 257 234 232 247 225 199 214 254 266 265 258 253 254 257 260
22 17 9 18 41 42 133 144 129 133 151 160 156 155 148 34 25 99 297 301 325 346 332 326 343 357 356 12 13 347 348 5 13 36 37 24 45 31 27 50 33 52 38 12 39 31 17 7 352 30 36 32 84 92 47 26 49 84 106 100 91 59 21 36 355 1 133 235 266 276 280 227 239 243 237 250 258 251 232 229 265 305 323 325 254 241 244 247
27 24 22 17 28 35 50 167 153 141 154 159 162 170 104 64 29 235 292 334 354 315 318 289 308 330 330 4 9 334 358 17 358 28 43 41 64 44 22 42 51 121 96 43 69 38 24 4 12 20 14 4 33 113 103 350 61 105 125 107 105 112 81 114 197 342 265 244 277 268 241 255 270 261 221 229 258 279 262 245 256 299 350 27 51 199 219 225
31 29 28 22 19 14 18 167 179 169 168 170 167 64 61 73 234 253 300 274 259 325 331 304 313 331 10 38 343 316 33 38 355 18 23 31 48 17 347 11 20 55 99 88 66 57 87 50 13 17 330 344 13 95 135 134 111 110 141 115 124 141 136 164 178 177 217 258 302 274 242 186 220 243 214 232 286 330 276 223 221 260 48 56 63 86 121 160
51 37 27 22 23 5 357 178 192 182 181 177 107 63 77 149 234 173 249 250 251 328 309 329 12 20 5 347 341 346 41 27 11 34 29 29 51 15 349 340 354 25 85 92 60 78 89 30 336 336 315 345 17 354 21 88 93 129 133 93 80 158 139 132 148 166 169 132 327 233 233 220 213 260 286 299 354 57 94 158 175 138 101 84 76 80 85 94
83 30 21 20 22 19 33 151 175 164 178 161 63 58 144 193 203 166 178 236 132 325 315 342 41 49 351 319 342 352 8 25 28 42 26 24 42 5 358 293 321 23 79 109 112 154 104 38 326 348 17 30 37 16 24 58 127 163 74 89 219 144 122 109 108 88 97 125 216 238 267 297 307 284 326 28 84 53 39 92 139 120 106 90 81 82 82 86
246 354 14 20 24 27 50 124 156 164 181 111 73 83 214 194 174 169 101 65 129 101 79 55 4 38 337 323 332 326 343 13 28 45 24 359 23 3 351 308 300 32 28 108 120 217 112 95 5 29 63 20 19 61 52 50 78 106 131 178 161 99 101 100 99 17 44 145 268 313 272 300 316 249 323 31 136 273 335 15 98 117 116 107 97 91 89 90
271 337 13 21 32 42 66 107 132 163 158 69 71 125 208 147 227 195 106 106 143 62 75 111 286 55 185 149 327 315 342 3 5 47 53 4 26 8 357 325 295 10 351 352 113 8 70 92 5 20 106 323 346 64 51 30 39 76 139 154 117 114 126 74 107 122 93 174 287 316 298 268 211 215 272 222 199 219 250 293 147 141 128 116 110 101 98 94
53 81 18 21 43 58 71 104 124 173 85 69 84 221 189 203 275 152 119 111 130 67 73 149 191 60 110 132 259 303 358 35 18 62 88 77 40 8 30 354 299 341 348 352 108 51 47 87 18 310 247 303 8 46 24 350 24 60 83 51 41 125 156 123 113 144 137 149 246 313 329 266 225 210 200 205 205 193 193 223 203 165 126 115 113 104 104 97
126 120 24 20 54 69 68 84 70 44 63 94 168 190 217 245 194 141 156 191 136 85 72 193 151 84 86 129 166 309 27 51 54 73 69 65 62 5 10 46 295 321 339 12 82 52 23 74 125 297 338 357 70 43 213 239 29 72 41 338 7 67 123 136 82 71 107 136 180 253 316 267 249 203 184 213 213 187 180 189 189 165 126 120 115 101 120 128
120 126 14 19 67 79 69 69 53 55 81 105 161 145 351 175 151 153 196 210 227 313 124 161 140 125 132 109 76 302 66 46 39 75 70 31 59 59 305 18 297 303 337 36 59 47 61 85 118 104 27 70 189 289 217 192 200 157 157 215 158 112 118 119 48 345 85 116 166 155 251 271 266 195 208 246 231 196 189 172 164 157 138 131 121 130 159 163
109 119 12 30 83 98 86 70 38 51 94 88 58 81 156 145 127 156 200 193 243 308 61 112 114 111 131 124 88 150 116 57 26 56 76 345 50 161 279 337 329 279 47 77 354 281 140 101 87 85 56 136 247 274 110 48 136 131 124 99 129 120 110 118 177 242 92 73 147 133 235 273 275 258 251 283 310 207 191 170 155 157 157 153 150 157 166 165
98 93 37 49 116 106 86 67 16 27 63 22 15 83 107 127 117 135 197 201 243 263 46 57 88 74 143 177 116 135 130 89 75 64 65 247 291 260 313 349 348 295 50 86 239 279 94 89 82 54 322 326 327 333 8 16 61 119 235 131 131 130 87 130 166 158 129 166 157 106 270 268 282 324 327 318 330 185 179 181 179 180 180 172 168 173 172 168
99 82 51 51 135 175 107 115 114 69 339 333 31 44 22 160 130 124 224 226 202 172 114 116 218 120 144 135 101 143 177 106 86 3 75 174 305 334 1 7 11 10 26 36 357 8 61 102 104 85 20 350 346 344 336 316 287 191 217 158 131 99 90 124 139 81 87 199 152 129 234 258 282 334 357 4 294 219 198 190 192 192 186 180 176 180 179 178
118 86 49 49 62 118 113 131 141 136 149 92 69 25 12 33 48 60 185 181 163 155 127 116 143 118 118 77 68 33 7 94 116 9 46 10 318 343 24 21 26 38 35 22 8 42 116 125 115 120 133 172 223 257 253 244 241 243 182 145 132 108 116 151 116 77 289 223 146 156 217 265 292 319 340 315 276 222 206 201 207 201 191 192 196 194 193 195
143 116 51 50 59 76 88 112 125 123 147 138 91 348 62 68 315 336 97 133 160 145 111 115 147 115 77 71 72 31 3 24 79 103 99 326 289 300 6 20 31 35 34 19 16 57 105 82 87 133 154 178 188 207 238 201 155 206 203 172 169 139 131 111 97 141 198 169 184 223 215 294 295 250 236 258 246 228 224 216 215 213 201 201 208 212 212 209
157 144 154 91 67 69 77 98 113 113 145 155 124 222 171 64 327 329 309 286 188 184 98 79 105 119 148 134 99 71 357 2 30 83 108 254 265 293 335 30 34 30 47 25 13 59 107 88 92 121 143 198 190 194 301 46 154 192 186 174 169 149 134 124 150 193 160 124 276 256 195 224 265 228 215 231 230 233 233 222 218 220 214 211 217 223 219 213
168 165 141 141 162 87 78 121 131 113 119 137 119 118 130 52 321 220 267 330 124 227 300 31 25 48 174 168 115 116 110 26 28 72 159 210 266 334 10 74 30 37 85 49 18 72 113 127 190 102 70 270 261 345 348 16 206 211 189 189 178 163 168 177 200 199 158 164 240 235 177 209 250 236 218 217 211 211 217 219 225 225 219 219 222 222 217 218
118 128 121 112 129 113 108 142 141 119 109 115 108 124 149 162 208 245 279 29 357 342 74 217 291 359 54 128 103 126 170 120 89 233 188 143 191 343 81 124 2 33 82 59 29 63 105 109 71 86 43 342 351 351 359 46 342 299 246 211 187 180 190 196 218 212 186 215 230 190 205 246 250 233 226 219 213 213 217 222 225 221 217 220 223 222 221 226
159 146 144 112 95 92 102 126 131 113 84 88 109 162 162 158 180 218 167 80 332 323 31 245 273 40 62 88 91 107 215 187 170 210 171 132 150 213 175 190 196 30 30 53 26 24 82 109 106 88 62 338 347 360 6 61 112 276 276 241 183 182 208 221 243 195 198 253 243 168 269 277 257 224 220 215 206 211 221 223 219 218 218 222 227 229 229 236
214 194 166 127 97 87 108 123 121 107 87 155 151 170 176 180 178 157 108 74 198 256 284 173 139 100 57 62 77 76 255 164 125 127 126 112 121 154 161 209 178 115 34 71 17 3 72 108 52 73 79 288 333 6 330 354 50 280 276 244 194 180 194 205 212 192 178 185 163 129 251 272 273 218 199 199 198 207 220 224 220 219 222 228 238 241 242 247
217 195 176 145 103 151 160 120 70 114 168 196 150 160 192 192 174 152 106 4 193 132 139 158 143 107 68 70 84 119 114 106 104 95 88 87 96 102 90 91 129 131 140 125 62 18 103 132 153 111 123 264 323 351 302 357 21 285 265 226 195 196 208 207 231 230 201 157 134 160 216 241 273 226 172 188 211 215 219 220 216 220 227 237 247 252 255 253